STARLINK-2613

operational
NORAD ID: 48353 Int'l Des: 2021-038 Owner: SPXS Country: US Constellation: starlink
LEOCIRCULARSTARLINK_TYPE

About STARLINK-2613

Description loading...

Live Position

Loading 3D Globe...

Upcoming Passes

Altitude History

Altitude vs Time

uPlot chart will show altitude changes over time

Two-Line Element Set

1 48353U 21038A 25250.88281994 .00002787 00000-0 20584-3 0 9996
2 48353 53.0545 102.2698 0001540 93.6802 266.4363 15.06413873239476
Epoch: Sep 7, 2025 • Age: 18 hours

Current Status

Altitude 547.5 km
Velocity 7.59 km/s
Sub-Earth Point 2.83°N, 56.54°E
Launch Date May 4, 2021
Age 4.3 years
Type internet

Technical Details

Classification Payload
Mass 260.00 kg
Dry Mass 248.00 kg
Total Mass 260.00 kg
Length 0.20 m
Diameter 2.80 m
Span 9.00 m
Shape Box + pan
Manufacturer SPXS
Bus Type Starlink
Phase Status In Orbit
Owner/State SPXS/US

Large Constellations

Loading constellations...